This demonstration page uses our WeatherBlox Daily Observations layout. Learn more.

Left ArrowRight Arrow

39.29038, -76.61219

Hourly Observations for December 2, 2022

Temp ( °F °C ) Dew Point ( °F °C ) Humidity (%) Winds ( mph kmh ) Pressure ( in mb ) Visibility ( mi km ) Precip ( " mm )
12:54 am 00:54 undefined 36 2.2 19 -7.2 50 50 undefined N/A 30.53 1034 N/A 0.00 0.00
1:54 am 01:54 undefined 34 1.1 21 -6.1 59 59 undefined N/A 30.53 1034 N/A 0.00 0.00
2:54 am 02:54 undefined 33 0.6 21 -6.1 61 61 undefined N/A 30.52 1034 N/A 0.00 0.00
3:54 am 03:54 undefined 34 1.1 19 -7.2 54 54 undefined N/A 30.51 1033 N/A 0.00 0.00
4:54 am 04:54 undefined 32 0 20 -6.7 61 61 undefined N/A 30.53 1034 N/A 0.00 0.00
5:54 am 05:54 undefined 32 0 21 -6.1 63 63 undefined N/A 30.55 1034 N/A 0.00 0.00
6:54 am 06:54 undefined 32 0 21 -6.1 63 63 undefined N/A 30.56 1035 N/A 0.00 0.00
7:54 am 07:54 undefined 32 0 20 -6.7 61 61 undefined N/A 30.57 1035 N/A 0.00 0.00
8:54 am 08:54 undefined 37 2.8 22 -5.6 54 54 undefined N/A 30.60 1036 N/A 0.00 0.00
9:54 am 09:54 undefined 40 4.4 26 -3.3 57 57 undefined N/A 30.59 1036 N/A 0.00 0.00
10:54 am 10:54 undefined 42 5.6 25 -3.9 50 50 undefined N/A 30.57 1035 N/A 0.00 0.00
11:54 am 11:54 undefined 44 6.7 28 -2.2 53 53 undefined N/A 30.54 1034 N/A 0.00 0.00
12:54 pm 12:54 undefined 45 7.2 27 -2.8 49 49 undefined N/A 30.49 1033 N/A 0.00 0.00
1:54 pm 13:54 undefined 47 8.3 29 -1.7 49 49 undefined N/A 30.49 1032 N/A 0.00 0.00
2:54 pm 14:54 undefined 47 8.3 32 0 56 56 undefined N/A 30.44 1031 N/A 0.00 0.00
3:54 pm 15:54 undefined 47 8.3 33 0.6 58 58 undefined N/A 30.45 1031 N/A 0.00 0.00
4:54 pm 16:54 undefined 47 8.3 33 0.6 58 58 undefined N/A 30.44 1031 N/A 0.00 0.00
5:54 pm 17:54 undefined 47 8.3 34 1.1 60 60 undefined N/A 30.44 1031 N/A 0.00 0.00
6:54 pm 18:54 undefined 47 8.3 34 1.1 60 60 undefined N/A 30.44 1031 N/A 0.00 0.00
7:54 pm 19:54 undefined 47 8.3 36 2.2 65 65 undefined N/A 30.42 1030 N/A 0.00 0.00
8:54 pm 20:54 undefined 46 7.8 37 2.8 71 71 undefined N/A 30.40 1030 N/A 0.00 0.00
9:54 pm 21:54 undefined 46 7.8 37 2.8 71 71 undefined N/A 30.39 1029 N/A 0.00 0.00
10:54 pm 22:54 undefined 46 7.8 35 1.7 65 65 undefined N/A 30.38 1029 N/A 0.00 0.00
11:54 pm 23:54 undefined 47 8.3 35 1.7 63 63 undefined N/A 30.36 1028 N/A 0.00 0.00

Powered by AerisWeather